El Centro, CA

4:00 PM PDT on May 29, 2017 (GMT -0700)
El Centro Naval Air Facility

Weather History for KNJK - January, 2012

Change the Weather History Date:

Sunday, January 22, 2012

  Actual Average Record
Temperature  
Mean Temperature 52 °F -  
Max Temperature 68 °F 69 °F 81 °F (2014)
Min Temperature 37 °F 46 °F 37 °F (2012)
Degree Days  
Heating Degree Days 12    
Growing Degree Days 2 (Base 50)    
Moisture  
Dew Point 31 °F    
Average Humidity 48    
Maximum Humidity 70    
Minimum Humidity 23    
Precipitation  
Precipitation 0.00 in - - ()
Sea Level Pressure  
Sea Level Pressure 30.13 in    
Wind  
Wind Speed - (North)    
Max Wind Speed -    
Max Gust Speed -    
Visibility 10 miles    
Events      
Averages and records for this station are not official NWS values.
T = Trace of Precipitation, MM = Missing Value Source: NWS Daily Summary

Daily Weather History Graph

Daily Weather History Graph

Search for Another Location

Airport or City:

Trip Planner

Search our weather history database for the weather conditions in past years. The results will help you decide how hot, cold, wet, or windy it might be!

Date:

Astronomy

Jan. 22, 2012 Rise Set
Actual Time 6:43 AM PST 5:05 PM PST
Civil Twilight 6:16 AM PST 5:31 PM PST
Nautical Twilight 5:46 AM PST 6:01 PM PST
Astronomical Twilight 5:17 AM PST 6:31 PM PST
Moon 6:03 AM PST (1/22) 4:50 PM PST (1/22)
Length of Visible Light 11h 14m
Length of Day
10h 22m
Waning Crescent, 0% of the Moon is Illuminated
Jan 22
Waning Crescent
Jan 22
New
Jan 30
First Quarter
Feb 7
Full
Feb 14
Last Quarter

Hourly Weather History & Observations

Time (PST) Temp. Dew Point Humidity Pressure Visibility Wind Dir Wind Speed Gust Speed Precip Events Conditions
12:56 AM 45.0 °F 34.0 °F 65% 30.06 in 10.0 mi North - - N/A   Clear
1:56 AM 44.1 °F 30.9 °F 60% 30.09 in 10.0 mi North - - N/A   Clear
2:56 AM 39.9 °F 30.9 °F 70% 30.10 in 10.0 mi North - - N/A   Clear
3:56 AM 41.0 °F 30.0 °F 65% 30.10 in 10.0 mi North - - N/A   Clear
4:56 AM 41.0 °F 28.9 °F 62% 30.12 in 10.0 mi North - - N/A   Clear
5:56 AM 43.0 °F 28.9 °F 58% 30.14 in 10.0 mi North - - N/A   Clear
6:56 AM 37.0 °F 27.0 °F 67% 30.16 in 10.0 mi North - - N/A   Clear
7:56 AM 45.0 °F 30.0 °F 56% 30.17 in 10.0 mi North - - N/A   Clear
8:56 AM 53.1 °F 34.0 °F 48% 30.18 in 10.0 mi North - - N/A   Clear
9:56 AM 61.0 °F 35.1 °F 38% 30.19 in 10.0 mi North - - N/A   Clear
10:56 AM 63.0 °F 28.9 °F 28% 30.17 in 10.0 mi North - - N/A   Clear
11:56 AM 66.0 °F 30.0 °F 26% 30.14 in 10.0 mi North - - N/A   Clear
12:56 PM 66.9 °F 30.9 °F 26% 30.11 in 10.0 mi North - - N/A   Partly Cloudy
1:56 PM 66.9 °F 28.0 °F 23% 30.11 in 10.0 mi North - - N/A   Clear
2:56 PM 66.9 °F 30.0 °F 25% 30.10 in 10.0 mi North - - N/A   Clear
3:56 PM 68.0 °F 28.9 °F 23% 30.12 in 10.0 mi North - - N/A   Clear
4:56 PM 63.0 °F 36.0 °F 37% 30.12 in 10.0 mi North - - N/A   Clear
5:56 PM 57.9 °F 37.0 °F 46% 30.12 in 10.0 mi North - - N/A   Clear
6:56 PM 53.1 °F 36.0 °F 52% 30.12 in 10.0 mi North - - N/A   Clear
7:56 PM 50.0 °F 30.9 °F 48% 30.13 in 10.0 mi North - - N/A   Clear
8:56 PM 46.0 °F 32.0 °F 58% 30.13 in 10.0 mi North - - N/A   Clear
9:56 PM 48.9 °F 32.0 °F 52% 30.14 in 10.0 mi North - - N/A   Clear
10:56 PM 44.1 °F 30.0 °F 58% 30.14 in 10.0 mi North - - N/A   Clear
11:56 PM 46.0 °F 28.9 °F 51% 30.12 in 10.0 mi North - - N/A   Clear